Home > Weather > Löhne > Past weeks

Flag for Germany Past Weather in Löhne, North Rhine-Westphalia, Germany — Yesterday and Last 2 Weeks

Now
54 °F

Partly sunny.


Feels Like: 51 °F
Forecast: 49 / 69 °F
Wind: 8 mph from West

Location: Bueckeburg

Current Time: May 25, 2016 at 1:17:40 PM

Latest Report: May 25, 2016 at 12:20 PM


Visibility: N/A

Pressure: 29.98 "Hg

Humidity: 77%

Dew Point: 46 °F

Location of LöhneLocation

Past Weather in Löhne — Graph

°F

Löhne Temperature Yesterday

Maximum temperature yesterday: 55 °F (at 2:20 PM)
Minimum temperature yesterday: 50 °F (at 7:20 AM)
Average temperature yesterday: 53 °F

High & Low Weather Summary for the Past Weeks

 TemperatureHumidityPressure
High79 °F (May 22, 2:20 PM)100% (May 22, 8:20 PM)30.07 "Hg (May 22, 8:20 PM)
Low41 °F (May 15, 4:20 AM)29% (May 13, 2:20 PM)29.53 "Hg (May 12, 5:20 PM)
Average58 °F68%29.86 "Hg
* Reported May 10 11:20 AM — May 25 11:20 AM, Löhne, Weather by CustomWeather, © 2016

Note: Actual official high and low records may vary slightly from our data, if they occured in-between our weather recording intervals... More about our weather records

Advertising

Löhne Weather History for the Previous 24 Hours

Scroll right to see more
 ConditionsComfort  
Time TempWeatherWind HumidityBarometerVisibility
11:20 AM
Wed, May 25
54 °FPartly sunny.7 mph77%29.98 "HgN/A
10:20 AM54 °FPartly sunny.6 mph72%29.98 "HgN/A
9:20 AM52 °FPartly sunny.6 mph77%29.98 "HgN/A
8:20 AM52 °FOvercast.6 mph77%29.98 "HgN/A
7:20 AM50 °FOvercast.6 mph88%29.98 "HgN/A
6:20 AM50 °FOvercast.8 mph88%29.95 "HgN/A
5:20 AM50 °FMostly cloudy.6 mph88%29.95 "HgN/A
4:20 AM52 °FOvercast.5 mph82%29.95 "HgN/A
3:20 AM52 °FOvercast.5 mph88%29.95 "HgN/A
2:20 AM52 °FOvercast.3 mph82%29.98 "HgN/A
1:20 AM52 °FOvercast.5 mph88%29.98 "HgN/A
12:20 AM52 °FOvercast.6 mph88%29.98 "HgN/A
11:20 PM
Tue, May 24
52 °FMostly cloudy.8 mph88%29.98 "HgN/A
10:20 PM52 °FMore clouds than sun.6 mph88%29.98 "HgN/A
9:20 PM54 °FMore clouds than sun.6 mph82%29.95 "HgN/A
8:20 PM54 °FPartly sunny.8 mph82%29.95 "HgN/A
7:20 PM54 °FPartly sunny.12 mph82%29.95 "HgN/A
6:20 PM55 °FPartly sunny.10 mph77%29.95 "HgN/A
5:20 PM55 °FBroken clouds.12 mph77%29.95 "HgN/A
4:20 PM55 °FBroken clouds.14 mph77%29.95 "HgN/A
3:20 PM55 °FBroken clouds.12 mph77%29.95 "HgN/A
2:20 PM55 °FPartly sunny.13 mph77%29.95 "HgN/A
1:20 PM54 °FPartly sunny.12 mph82%29.95 "HgN/A
Weather by CustomWeather, © 2016

See weather overviewHow to use our weather pages